Weather History for KROX - August, 2014

Change the Weather History Date:

Wednesday, August 13, 2014

  Actual Average Record
Temperature  
Mean Temperature 63 °F -  
Max Temperature 75 °F 77 °F 95 °F (1970)
Min Temperature 51 °F 52 °F 30 °F (1964)
Degree Days  
Heating Degree Days 2    
Growing Degree Days 13 (Base 50)    
Moisture  
Dew Point 54 °F    
Average Humidity 69    
Maximum Humidity 88    
Minimum Humidity 46    
Precipitation  
Precipitation 0.00 in - - ()
Sea Level Pressure  
Sea Level Pressure 30.10 in    
Wind  
Wind Speed 4 mph (ENE)    
Max Wind Speed 9 mph    
Max Gust Speed 16 mph    
Visibility 9 miles    
Events      
Averages and records for this station are not official NWS values.
T = Trace of Precipitation, MM = Missing Value Source: NWS Daily Summary

Daily Weather History Graph

Daily Weather History Graph

Search for Another Location

Airport or City:

Trip Planner

Search our weather history database for the weather conditions in past years. The results will help you decide how hot, cold, wet, or windy it might be!

Date:

Astronomy

Aug. 13, 2014 Rise Set
Actual Time 6:12 AM CDT 8:41 PM CDT
Civil Twilight 5:37 AM CDT 9:16 PM CDT
Nautical Twilight 4:52 AM CDT 10:00 PM CDT
Astronomical Twilight 4:01 AM CDT 10:52 PM CDT
Moon 10:02 PM CDT (8/13) 10:04 AM CDT (8/13)
Length of Visible Light 15h 39m
Length of Day
14h 28m
Waning Gibbous, 87% of the Moon is Illuminated
Aug 13
Waning Gibbous
Aug 17
Last Quarter
Aug 25
New
Sep 2
First Quarter
Sep 8
Full

Hourly Weather History & Observations

Time (CDT) Temp. Dew Point Humidity Pressure Visibility Wind Dir Wind Speed Gust Speed Precip Events Conditions
12:14 AM 60.8 °F 55.4 °F 82% 30.04 in 10.0 mi North 3.5 mph - N/A   Clear
12:34 AM 59.0 °F 53.6 °F 82% 30.05 in 10.0 mi North 4.6 mph - N/A   Clear
12:55 AM 59.0 °F 53.6 °F 82% 30.05 in 10.0 mi North 3.5 mph - N/A   Clear
1:14 AM 57.2 °F 53.6 °F 88% 30.05 in 10.0 mi North 3.5 mph - N/A   Clear
1:34 AM 57.2 °F 51.8 °F 82% 30.06 in 10.0 mi Calm Calm - N/A   Clear
1:54 AM 55.4 °F 51.8 °F 88% 30.06 in 10.0 mi Calm Calm - N/A   Clear
2:14 AM 55.4 °F 51.8 °F 88% 30.06 in 10.0 mi Calm Calm - N/A   Clear
2:34 AM 55.4 °F 51.8 °F 88% 30.06 in 10.0 mi North 3.5 mph - N/A   Clear
2:54 AM 55.4 °F 51.8 °F 88% 30.07 in 7.0 mi Calm Calm - N/A   Clear
3:14 AM 55.4 °F 51.8 °F 88% 30.07 in 3.0 mi Calm Calm - N/A   Haze
3:34 AM 55.4 °F 51.8 °F 88% 30.07 in 7.0 mi NNE 3.5 mph - N/A   Clear
3:54 AM 55.4 °F 50.0 °F 82% 30.07 in 7.0 mi Calm Calm - N/A   Clear
4:14 AM 55.4 °F 50.0 °F 82% 30.08 in 5.0 mi Calm Calm - N/A   Haze
4:34 AM 55.4 °F 50.0 °F 82% 30.08 in 1.8 mi Calm Calm - N/A   Haze
4:54 AM 53.6 °F 48.2 °F 82% 30.08 in 10.0 mi Calm Calm - N/A   Clear
5:14 AM 53.6 °F 48.2 °F 82% 30.09 in 7.0 mi Calm Calm - N/A   Clear
5:34 AM 53.6 °F 48.2 °F 82% 30.09 in 5.0 mi Calm Calm - N/A   Haze
5:54 AM 51.8 °F 46.4 °F 82% 30.10 in 0.8 mi Calm Calm - N/A   Haze
6:14 AM 51.8 °F 48.2 °F 88% 30.11 in 10.0 mi NNE 3.5 mph - N/A   Clear
6:34 AM 51.8 °F 46.4 °F 82% 30.11 in 3.0 mi Calm Calm - N/A   Haze
8:34 AM 60.8 °F 55.4 °F 82% 30.13 in 10.0 mi NE 5.8 mph - N/A   Clear
9:15 AM 66.2 °F 60.8 °F 83% 30.13 in 10.0 mi NE 4.6 mph - N/A   Clear
9:34 AM 68.0 °F 60.8 °F 78% 30.13 in 10.0 mi East 9.2 mph - N/A   Clear
10:14 AM 69.8 °F 60.8 °F 73% 30.14 in 10.0 mi East 3.5 mph - N/A   Clear
10:34 AM 71.6 °F 60.8 °F 69% 30.13 in 10.0 mi ENE 3.5 mph - N/A   Clear
10:54 AM 71.6 °F 60.8 °F 69% 30.14 in 10.0 mi NE 6.9 mph - N/A   Clear
11:14 AM 73.4 °F 60.8 °F 65% 30.13 in 10.0 mi ENE 6.9 mph - N/A   Clear
11:34 AM 73.4 °F 59.0 °F 61% 30.13 in 10.0 mi NNE 9.2 mph - N/A   Clear
11:54 AM 73.4 °F 57.2 °F 57% 30.13 in 10.0 mi North 5.8 mph - N/A   Clear
12:14 PM 73.4 °F 57.2 °F 57% 30.14 in 10.0 mi NE 5.8 mph - N/A   Clear
12:34 PM 73.4 °F 55.4 °F 53% 30.14 in 10.0 mi ENE 8.1 mph - N/A   Clear
12:54 PM 73.4 °F 55.4 °F 53% 30.13 in 10.0 mi ENE 6.9 mph - N/A   Clear
1:14 PM 73.4 °F 53.6 °F 50% 30.13 in 10.0 mi East 6.9 mph - N/A   Clear
1:34 PM 73.4 °F 55.4 °F 53% 30.13 in 10.0 mi NNE 3.5 mph - N/A   Clear
1:55 PM 73.4 °F 57.2 °F 57% 30.12 in 10.0 mi NNE 8.1 mph - N/A   Clear
2:14 PM 75.2 °F 57.2 °F 53% 30.12 in 10.0 mi ENE 8.1 mph - N/A   Clear
2:34 PM 73.4 °F 55.4 °F 53% 30.12 in 10.0 mi NE 6.9 mph - N/A   Clear
2:55 PM 75.2 °F 57.2 °F 53% 30.12 in 10.0 mi East 6.9 mph - N/A   Clear
3:14 PM 73.4 °F 55.4 °F 53% 30.12 in 10.0 mi NE 5.8 mph - N/A   Clear
3:34 PM 75.2 °F 57.2 °F 53% 30.11 in 10.0 mi SE 4.6 mph - N/A   Clear
3:54 PM 73.4 °F 57.2 °F 57% 30.11 in 10.0 mi East 9.2 mph 16.1 mph N/A   Clear
4:14 PM 75.2 °F 57.2 °F 53% 30.11 in 10.0 mi ENE 9.2 mph - N/A   Clear
4:34 PM 75.2 °F 55.4 °F 50% 30.11 in 10.0 mi ESE 9.2 mph - N/A   Clear
4:54 PM 75.2 °F 57.2 °F 53% 30.11 in 10.0 mi East 8.1 mph - N/A   Clear
5:14 PM 75.2 °F 55.4 °F 50% 30.10 in 10.0 mi East 9.2 mph - N/A   Clear
5:34 PM 75.2 °F 55.4 °F 50% 30.10 in 10.0 mi ESE 5.8 mph - N/A   Clear
5:54 PM 75.2 °F 55.4 °F 50% 30.10 in 10.0 mi ESE 8.1 mph - N/A   Clear
6:14 PM 73.4 °F 55.4 °F 53% 30.10 in 10.0 mi East 8.1 mph - N/A   Clear
6:34 PM 71.6 °F 53.6 °F 53% 30.10 in 10.0 mi East 8.1 mph - N/A   Clear
6:54 PM 71.6 °F 53.6 °F 53% 30.11 in 10.0 mi East 8.1 mph - N/A   Clear
7:54 PM 69.8 °F 48.2 °F 46% 30.10 in 10.0 mi East 8.1 mph - N/A   Clear
8:34 PM 64.4 °F 51.8 °F 64% 30.11 in 10.0 mi East 6.9 mph - N/A   Clear
8:54 PM 64.4 °F 53.6 °F 68% 30.11 in 10.0 mi East 8.1 mph - N/A   Clear
9:54 PM 62.6 °F 53.6 °F 72% 30.11 in 10.0 mi East 9.2 mph - N/A   Clear
11:14 PM 59.0 °F 51.8 °F 77% 30.11 in 10.0 mi SE 4.6 mph - N/A   Clear
11:34 PM 57.2 °F 50.0 °F 77% 30.12 in 10.0 mi SE 3.5 mph - N/A   Clear
11:54 PM 57.2 °F 50.0 °F 77% 30.11 in 10.0 mi ESE 4.6 mph - N/A   Clear